Location: Cuzcurrita-R�o Tir�n
(42.5415°N, 2.9642°W)
Time: 07:55:21
(UTC+00:00)

STARLINK-1062 - Pass Details

Date: 27 February 2020
Orbit: 549 x 550 km, 53.0° (Epoch: 04 April)

Event Time Altitude Azimuth Distance (km) Brightness Sun altitude
Rises 18:52:36 0° 239° (WSW) 2,710 8.3 -10.8°
Reaches altitude 10° 18:54:50 10° 242° (WSW) 1,820 7.4 -11.2°
Maximum altitude 18:58:57 69° 325° (NW) 594 3.9 -11.9°
Enters shadow 19:02:46 12° 49° (NE) 1,698 5.7 -12.6°
